DW4596 Weather Reports


time (UTC)temp
C
wind
direction
speed
KPH
gust
KPH
rain 1hr
cm
rain 24hr
cm
rain mn
cm
humidity
%
barometer
mb
20260506024610 7 178 8.0 0.0 0.00 0.00 0.81 82 1007.9
20260506023103 7 182 8.0 0.0 0.00 0.00 0.81 83 1007.9
20260506021558 7 177 6.4 0.0 0.00 0.00 0.76 83 1007.7
20260506020052 7 185 6.4 0.0 0.00 0.00 0.71 83 1007.9
20260506014549 7 161 6.4 0.0 0.00 0.00 0.66 84 1007.1
20260506013059 7 167 6.4 0.0 0.00 0.00 0.66 84 1007.1
20260506011615 7 195 3.2 0.0 0.00 0.00 0.58 84 1006.9
20260506010051 8 207 8.0 0.0 0.00 0.00 0.48 84 1006.9
20260506004547 8 194 11.3 0.0 0.00 0.00 0.30 84 1006.8
20260506003055 8 209 9.7 0.0 0.00 0.00 0.28 84 1006.8
20260506001549 8 212 8.0 0.0 0.00 0.00 0.18 84 1006.6
20260506000055 9 219 11.3 0.0 0.00 0.00 0.13 83 1006.3
20260505234544 10 240 12.9 0.0 0.00 0.00 0.05 80 1005.6
20260505233045 10 259 14.5 0.0 0.00 0.00 0.05 80 1005.5
20260505231543 11 267 19.3 0.0 0.00 0.00 0.00 75 1005.4
20260505230038 12 277 22.5 0.0 0.00 0.00 0.00 68 1005.2
20260505224536 13 267 20.9 0.0 0.00 0.00 0.00 60 1004.4
20260505223034 14 277 22.5 0.0 0.00 0.00 0.00 60 1004.4
20260505221530 14 259 22.5 0.0 0.00 0.00 0.00 62 1004.0
20260505220044 14 238 14.5 0.0 0.00 0.00 0.00 67 1003.5
20260505214528 15 271 20.9 0.0 0.00 0.00 0.00 65 1002.9
20260505213025 15 277 22.5 0.0 0.00 0.00 0.00 64 1002.9
20260505211523 15 270 22.5 0.0 0.00 0.00 0.00 66 1002.3
20260505210020 16 269 19.3 0.0 0.00 0.00 0.00 69 1002.0
20260505204520 14 240 14.5 0.0 0.00 0.00 0.00 79 1001.9
20260505203020 14 230 14.5 0.0 0.00 0.00 0.00 77 1001.8
20260505201518 14 218 17.7 0.0 0.00 0.00 0.00 77 1001.5
20260505200015 15 223 20.9 0.0 0.00 0.00 0.00 75 1001.3
20260505194520 17 210 22.5 0.0 0.00 0.00 0.00 71 1001.1
20260505193014 17 245 24.1 0.0 0.00 0.00 0.00 72 1001.1
20260505191509 16 216 20.9 0.0 0.00 0.00 0.00 74 1000.9
20260505190007 16 206 20.9 0.0 0.00 0.00 0.00 75 1000.8
20260505184507 16 231 17.7 0.0 0.00 0.00 0.00 73 1001.0
20260505183012 16 236 19.3 0.0 0.00 0.00 0.00 74 1000.9
20260505181504 15 222 20.9 0.0 0.00 0.00 0.00 78 1001.0
20260505180001 13 184 17.7 0.0 0.00 0.00 0.00 79 1000.8
20260505174558 12 233 17.7 0.0 0.00 0.00 0.00 82 1000.9
20260505173000 12 221 17.7 0.0 0.00 0.00 0.00 82 1000.8
20260505171559 11 213 19.3 0.0 0.00 0.00 0.00 82 1000.8
20260505170057 11 233 22.5 0.0 0.00 0.00 0.00 81 1001.0
20260505164601 13 232 30.6 0.0 0.00 0.00 0.00 77 1000.9
20260505163054 13 229 30.6 0.0 0.00 0.00 0.00 76 1000.9
20260505161556 13 217 22.5 0.0 0.00 0.00 0.00 79 1000.5
20260505153107 16 234 22.5 0.0 0.00 0.00 0.20 71 1000.1
20260505151552 17 193 30.6 0.0 0.00 0.00 0.20 68 1000.0
20260505124558 17 190 24.1 0.0 0.00 0.00 0.20 69 998.8
20260505123058 17 184 24.1 0.0 0.00 0.00 0.20 69 998.9
20260505121553 16 182 22.5 0.0 0.00 0.00 0.20 71 998.8
20260505114552 16 178 20.9 0.0 0.00 0.00 0.20 72 998.8
20260505113111 16 187 22.5 0.0 0.00 0.00 0.20 73 998.7
20260505111552 15 178 17.7 0.0 0.00 0.00 0.20 75 998.7
20260505101554 14 155 12.9 0.0 0.00 0.00 0.18 81 998.4
20260505100054 14 177 14.5 0.0 0.00 0.00 0.18 81 998.5
20260505094552 14 154 19.3 0.0 0.00 0.00 0.18 79 998.9
20260505093102 14 176 19.3 0.0 0.00 0.00 0.18 79 998.4
20260505091552 15 202 22.5 0.0 0.00 0.00 0.13 73 999.1
20260505090051 16 200 19.3 0.0 0.00 0.00 0.10 69 998.9
20260505084553 15 190 16.1 0.0 0.00 0.00 0.10 70 999.0
20260505083055 15 188 16.1 0.0 0.00 0.00 0.10 69 999.2
20260505081553 15 184 19.3 0.0 0.00 0.00 0.10 68 999.3
20260505080054 15 186 17.7 0.0 0.00 0.00 0.10 68 999.3
20260505074550 13 181 16.1 0.0 0.00 0.00 0.10 70 999.4
20260505073100 13 213 14.5 0.0 0.00 0.00 0.10 70 999.5
20260505071552 13 178 11.3 0.0 0.00 0.00 0.10 74 999.4
20260505070052 13 177 11.3 0.0 0.00 0.00 0.10 77 999.4
20260505064558 15 218 25.7 0.0 0.00 0.00 0.05 65 999.4
20260505063055 15 204 24.1 0.0 0.00 0.00 0.05 65 1000.0
20260505061556 15 192 9.7 0.0 0.00 0.00 0.00 60 999.2
20260505060051 15 175 14.5 0.0 0.00 0.00 0.00 59 999.2
20260505054548 15 161 19.3 0.0 0.00 0.00 0.00 57 999.3
20260505053112 15 158 19.3 0.0 0.00 0.00 0.00 57 999.4
20260505051551 15 162 12.9 0.0 0.00 0.00 0.00 56 999.6
20260505041547 14 184 3.2 0.0 0.00 0.00 0.00 57 1000.0
20260505040046 14 196 3.2 0.0 0.00 0.00 0.00 58 1000.1
20260505034606 15 197 6.4 0.0 0.00 0.00 0.00 56 1000.0
20260505033054 15 190 6.4 0.0 0.00 0.00 0.00 56 1000.0
20260505031548 15 194 6.4 0.0 0.00 0.00 0.00 56 1000.2
20260505030051 15 207 8.0 0.0 0.00 0.00 0.00 57 1000.3